Regional Weather Roundup
Issued by NWS

Home | Current Version | Previous Version | Text Only | Print | Product List | Glossary On
Versions: 1 2 3 4 5 6 7 8 9 10 11 12 13 14 15 16 17 18 19 20 21 22 23 24 25 26 27 28 29 30 31 32 33 34 35 36 37 38 39 40 41 42 43 44 45 46 47 48 49 50
000
ASUS43 KLOT 041812
RWRIL

ILLINOIS REGIONAL WEATHER ROUNDUP
NATIONAL WEATHER SERVICE CHICAGO/ROMEOVILLE IL
100 PM CDT MON MAY 04 2015

NOTE: "FAIR" INDICATES FEW OR NO CLOUDS BELOW 12,000 FEET WITH NO
SIGNIFICANT WEATHER AND/OR OBSTRUCTIONS TO VISIBILITY.

* THESE STATIONS ARE NOT UNDER NWS QUALITY CONTROL. THEY ALSO MAY NOT
  REPORT WEATHER SUCH AS PRECIPITATION OR FOG.

ILZ001-002-007-009-015-016-024-041900-
NORTHWEST ILLINOIS

CITY           SKY/WX    TMP DP  RH WIND       PRES   REMARKS
MOLINE         CLOUDY    73  61  65 NE9       30.09S
6HR MIN TEMP:  60; 6HR MAX TEMP:  75;

STERLING*      CLOUDY    70  61  73 CALM      30.12S
SAVANNA*       PTSUNNY   71  58  64 CALM      30.12S
$$

ILZ003-004-008-010-011-017-018-041900-
NORTH CENTRAL ILLINOIS

CITY           SKY/WX    TMP DP  RH WIND       PRES   REMARKS
ROCKFORD       PTSUNNY   70  57  63 E5        30.12S
6HR MIN TEMP:  60; 6HR MAX TEMP:  71;

FREEPORT*      PTSUNNY   68  58  71 CALM      30.14S
ROCHELLE*      CLOUDY    65  59  81 CALM      30.13S
DE KALB*       PTSUNNY   65  58  76 N5        30.13R
PERU*          PTSUNNY   72  61  68 N5        30.12S
$$

ILZ005-006-012>014-019>023-041900-
NORTHEAST ILLINOIS

CITY           SKY/WX    TMP DP  RH WIND       PRES   REMARKS
CHICAGO-OHARE  CLOUDY    70  57  63 W3        30.10R
6HR MIN TEMP:  59; 6HR MAX TEMP:  70;

CHICAGO-MIDWAY CLOUDY    73  58  59 VRB6      30.10S
6HR MIN TEMP:  65; 6HR MAX TEMP:  74;

AURORA         CLOUDY    69  58  67 W6        30.12R
6HR MIN TEMP:  61; 6HR MAX TEMP:  70;

LANSING*       CLOUDY    69  59  70 W6        30.12S
JOLIET*        CLOUDY    72  63  74 S6        30.12R
WAUKEGAN       PTSUNNY   69  58  67 E8        30.10S
6HR MIN TEMP:  60; 6HR MAX TEMP:  69;

DUPAGE AIRPORT PTSUNNY   71  60  68 W6        30.11R
6HR MIN TEMP:  61; 6HR MAX TEMP:  71;

KANKAKEE*      PTSUNNY   70  64  79 SW7       30.13S
WHEELING       PTSUNNY   71  57  61 VRB7      30.11S
6HR MIN TEMP:  62; 6HR MAX TEMP:  72;

MORRIS*        CLOUDY    70  61  72 W6        30.10S
ROMEOVILLE*    CLOUDY    70  58  67 W5        30.12R
NORTHERLY ISL    N/A     61  54  77 E9          N/A
$$

LMZ740>746-041900-
SOUTHERN LAKE MICHIGAN

STATION/POSITION SKY/WX   TEMP    WIND        PRES    VSBY  WAVE
                          AIR SEA DIR/SP/G                  HT/PER
                          (F)     (DEG/KT/KT) (MB)    (MI)  (FT/S)
HARRISON CRIB              67     300/  9/ 11   N/A
BURNHAM HARBOR             60     100/  6/ 10   N/A
CALUMET HARBOR             70     200/  4/  9   N/A
BURNS HARBOR               62     330/  3/  5 1020.3R
MICHIGAN CITY              59     240/  8/  9   N/A
MICHIGAN CITY 6N           57 51  300/  4/  4   N/A           0
ST. JOSEPH                 51 48  290/  6/  6   N/A           1/ 3
$$

ILZ025>027-034>036-040-047-049-050-058-095>099-041900-
WEST-CENTRAL ILLINOIS

CITY           SKY/WX    TMP DP  RH WIND       PRES   REMARKS
QUINCY         PTSUNNY   77  59  53 SW7       30.08F
GALESBURG*     PTSUNNY   71  63  73 W3        30.10S
MACOMB*        PTSUNNY   72  63  73 S12       30.10F
JACKSONVILLE*  PTSUNNY   82  59  44 W9        30.10S HX  82
PITTSFIELD*    PTSUNNY   80  60  49 SW8       30.10F HX  81
$$

ILZ028>032-037-038-041>044-048-051>054-059>061-041900-
CENTRAL ILLINOIS

CITY           SKY/WX    TMP DP  RH WIND       PRES   REMARKS
PONTIAC        CLOUDY    72  65  80 W7        30.13S
BLOOMINGTON    CLOUDY    74  64  70 W10       30.13R
DECATUR        PTSUNNY   79  59  50 W12G18    30.11S HX  80
PEORIA         LGT RAIN  71  63  75 SW8       30.10S
6HR MIN TEMP:  62; 6HR MAX TEMP:  71; 6HR PCP:  0.11;

LACON*         CLOUDY    69  62  80 NW5       30.11S
LINCOLN*       CLOUDY    78  59  52 SW7       30.08F
SPRINGFIELD    CLOUDY    80  57  45 SW14G22   30.10S HX  80
6HR MIN TEMP:  64; 6HR MAX TEMP:  82; 6HR PCP:  0.03;

TAYLORVILLE    CLOUDY    79  55  44 SW14G21   30.11S
$$

ILZ033-039-045-046-055>057-062-063-041900-
EAST-CENTRAL ILLINOIS

CITY           SKY/WX    TMP DP  RH WIND       PRES   REMARKS
CHAMPAIGN      CLOUDY    79  60  52 SW15G22   30.12R HX  80
DANVILLE*      CLOUDY    70  64  79 SW10      30.11R
RANTOUL*       CLOUDY    76  66  71 SW9       30.11S
MATTOON        PTSUNNY   75  60  59 S14       30.13F
PARIS*         CLOUDY    77  62  60 S12       30.13F
$$

ILZ079-100>102-041900-
SOUTHWEST ILLINOIS

CITY           SKY/WX    TMP DP  RH WIND       PRES   REMARKS
BELLEVILLE     PTSUNNY   82  60  47 VRB7      30.11F HX  83
CAHOKIA*       MOSUNNY   83  58  42 MISG      30.10F HX  83
SPARTA*        MOSUNNY   80  60  51 S13       30.14F HX  81
$$

ILZ064>066-069>071-074>076-080>082-084>086-088>090-092>094-041900-
SOUTH-CENTRAL ILLINOIS

CITY           SKY/WX    TMP DP  RH WIND       PRES   REMARKS
CARBONDALE     PTSUNNY   81  58  45 S16       30.15F HX  81
6HR MIN TEMP:  62; 6HR MAX TEMP:  82;

CAIRO*         MOSUNNY   83  57  41 S9G17     30.17F HX  82
EFFINGHAM*     PTSUNNY   80  53  39 S6G16     30.14F HX  80
MARION         PTSUNNY   81  61  50 S15       30.17F HX  81
MT. VERNON     PTSUNNY  N/A N/A N/A S17       30.15F
CENTRALIA*     PTSUNNY   84  54  35 SW12      30.14F HX  82
SALEM*         PTSUNNY   82  54  37 S16       30.14F HX  81
METROPOLIS*    FAIR      82  58  43 SW12G21   30.18F HX  82
$$

ILZ067-068-072-073-078-083-087-091-041900-
SOUTHEAST ILLINOIS

CITY           SKY/WX    TMP DP  RH WIND       PRES   REMARKS
LAWRENCEVILLE  CLOUDY    80  58  46 SW12      30.15F HX  80
FLORA*         CLOUDY    81  55  41 SW18      30.14F HX  81
FAIRFIELD*     PTSUNNY   81  57  43 SW15G25   30.14S HX  81
HARRISBURG*    PTSUNNY   81  56  42 SW14G20   30.17F HX  81
ROBINSON*      CLOUDY    79  56  44 S7        30.15S
CARMI*         PTSUNNY   82  52  35 SW10G18   30.15F HX  81
$$

ABBREVIATIONS USED IN REMARKS
   TC - TEMPERATURE IN CELSIUS
  WCI - WIND CHILL INDEX
   HX - HEAT INDEX
  VSB - VISIBILITY
$$



USA.gov is the U.S. government's official web portal to all federal, state and local government web resources and services.